Вернуться в каталог

GEESAT 2-10

АктивенНаукаLEO
NORAD 58914·PAYLOAD·🇨🇳 China

Запущен Feb 2, 2024 с Xichang Satellite Launch Center

Loading…

Ближайшие Пролёты (ближайшие 24 часа)

TLE

СвежийSource: Space-Track

Эпоха: Sep 14, 2026, 22:23 UTC

1 58914U 24023K   26257.93333013  .00000996  00000-0  14742-3 0  9990
2 58914  49.9949 298.2373 0009658 337.6810  22.3706 14.83404915142234

Отслеживайте GEESAT 2-10 в реальном времени с AllMySat

Download on the App Store